Météo par heure à Alliance

Ce jour, 15 Mai, Samedi

Heure Température Précipitation Vent Pression Humidité
00:00 +9°C° 0 mm 1 m/s 737 mmHg 71%
01:00 +8°C° 0 mm 1 m/s 737 mmHg 73%
02:00 +8°C° 0 mm 1 m/s 737 mmHg 74%
03:00 +7°C° 0 mm 1 m/s 737 mmHg 75%
04:00 +7°C° 0 mm 1 m/s 737 mmHg 76%
05:00 +8°C° 0 mm 1 m/s 738 mmHg 74%
06:00 +10°C° 0 mm 1 m/s 738 mmHg 73%
07:00 +11°C° 0 mm 1 m/s 738 mmHg 71%
08:00 +13°C° 0 mm 1 m/s 738 mmHg 66%
09:00 +15°C° 0 mm 1 m/s 738 mmHg 61%
10:00 +16°C° 0 mm 2 m/s 738 mmHg 56%
11:00 +19°C° 0 mm 1 m/s 738 mmHg 51%
12:00 +20°C° 0 mm 1 m/s 738 mmHg 47%
13:00 +21°C° 0 mm 1 m/s 737 mmHg 42%
14:00 +21°C° 0 mm 1 m/s 737 mmHg 44%
15:00 +20°C° 0 mm 1 m/s 737 mmHg 46%
16:00 +20°C° 0 mm 1 m/s 736 mmHg 49%
17:00 +18°C° 0 mm 1 m/s 736 mmHg 55%
18:00 +16°C° 0 mm 1 m/s 736 mmHg 62%
19:00 +14°C° 0 mm 1 m/s 736 mmHg 69%
20:00 +14°C° 0 mm 1 m/s 736 mmHg 69%
21:00 +13°C° 0 mm 1 m/s 736 mmHg 68%
22:00 +12°C° 0 mm 1 m/s 736 mmHg 67%
23:00 +12°C° 0 mm 1 m/s 736 mmHg 67%

Demain, 16 Mai, Dimanche

Heure Température Précipitation Vent Pression Humidité
00:00 +12°C° 0 mm 1 m/s 736 mmHg 67%
01:00 +12°C° 0 mm 2 m/s 735 mmHg 67%
02:00 +11°C° 0 mm 1 m/s 736 mmHg 69%
03:00 +11°C° 0 mm 1 m/s 736 mmHg 72%
04:00 +11°C° 0 mm 1 m/s 736 mmHg 75%
05:00 +11°C° 0.1 mm 1 m/s 736 mmHg 77%
06:00 +12°C° 0.1 mm 1 m/s 737 mmHg 80%
07:00 +12°C° 0.1 mm 1 m/s 737 mmHg 83%
08:00 +13°C° 0 mm 1 m/s 737 mmHg 79%
09:00 +14°C° 0 mm 2 m/s 737 mmHg 75%
10:00 +15°C° 0 mm 2 m/s 737 mmHg 72%
11:00 +15°C° 0.3 mm 2 m/s 737 mmHg 74%
12:00 +14°C° 0.3 mm 3 m/s 737 mmHg 76%
13:00 +14°C° 0.3 mm 3 m/s 736 mmHg 78%
14:00 +16°C° 0.1 mm 2 m/s 736 mmHg 73%
15:00 +17°C° 0.1 mm 2 m/s 736 mmHg 68%
16:00 +18°C° 0.1 mm 2 m/s 735 mmHg 62%
17:00 +18°C° 0.2 mm 1 m/s 735 mmHg 69%
18:00 +16°C° 0.2 mm 1 m/s 736 mmHg 75%
19:00 +15°C° 0.2 mm 1 m/s 736 mmHg 81%
20:00 +13°C° 0 mm 1 m/s 736 mmHg 84%
21:00 +12°C° 0 mm 1 m/s 736 mmHg 86%
22:00 +11°C° 0 mm 1 m/s 736 mmHg 89%
23:00 +11°C° 0 mm 1 m/s 736 mmHg 90%

Après-demain, 17 Mai, Lundi

Heure Température Précipitation Vent Pression Humidité
00:00 +10°C° 0 mm 1 m/s 736 mmHg 91%
01:00 +10°C° 0 mm 1 m/s 736 mmHg 92%
02:00 +10°C° 0 mm 1 m/s 736 mmHg 92%
03:00 +10°C° 0 mm 1 m/s 736 mmHg 92%
04:00 +9°C° 0 mm 1 m/s 736 mmHg 93%
05:00 +10°C° 0 mm 1 m/s 736 mmHg 91%
06:00 +11°C° 0 mm 1 m/s 736 mmHg 90%
07:00 +12°C° 0 mm 1 m/s 737 mmHg 88%
08:00 +14°C° 0 mm 2 m/s 737 mmHg 83%
09:00 +15°C° 0 mm 2 m/s 737 mmHg 77%
10:00 +17°C° 0 mm 2 m/s 737 mmHg 71%
11:00 +18°C° 0 mm 2 m/s 737 mmHg 67%
12:00 +19°C° 0 mm 2 m/s 737 mmHg 63%
13:00 +20°C° 0 mm 2 m/s 736 mmHg 60%
14:00 +21°C° 0 mm 1 m/s 736 mmHg 59%
15:00 +21°C° 0 mm 1 m/s 736 mmHg 59%
16:00 +22°C° 0 mm 1 m/s 736 mmHg 58%
17:00 +20°C° 0 mm 1 m/s 736 mmHg 64%
18:00 +19°C° 0 mm 1 m/s 736 mmHg 70%
19:00 +18°C° 0 mm 1 m/s 736 mmHg 76%
20:00 +16°C° 0 mm 1 m/s 736 mmHg 79%
21:00 +15°C° 0 mm 1 m/s 736 mmHg 82%
22:00 +14°C° 0 mm 2 m/s 737 mmHg 84%
23:00 +13°C° 0 mm 2 m/s 737 mmHg 86%

18 Mai, Mardi

Heure Température Précipitation Vent Pression Humidité
00:00 +12°C° 0 mm 2 m/s 737 mmHg 88%
01:00 +12°C° 0 mm 1 m/s 737 mmHg 90%
02:00 +12°C° 0 mm 2 m/s 737 mmHg 91%
03:00 +10°C° 0 mm 2 m/s 737 mmHg 92%
04:00 +10°C° 0 mm 2 m/s 737 mmHg 92%
05:00 +12°C° 0 mm 2 m/s 737 mmHg 90%
06:00 +13°C° 0 mm 2 m/s 738 mmHg 88%
07:00 +14°C° 0 mm 2 m/s 738 mmHg 86%
08:00 +16°C° 0 mm 2 m/s 738 mmHg 79%
09:00 +18°C° 0 mm 3 m/s 738 mmHg 73%
10:00 +20°C° 0 mm 3 m/s 738 mmHg 66%
11:00 +21°C° 0 mm 2 m/s 738 mmHg 63%
12:00 +23°C° 0 mm 2 m/s 738 mmHg 59%
13:00 +24°C° 0 mm 2 m/s 738 mmHg 55%
14:00 +24°C° 0 mm 2 m/s 738 mmHg 58%
15:00 +24°C° 0 mm 1 m/s 737 mmHg 60%
16:00 +24°C° 0 mm 1 m/s 737 mmHg 63%
17:00 +23°C° 0 mm 1 m/s 737 mmHg 68%
18:00 +21°C° 0 mm 1 m/s 737 mmHg 73%
19:00 +20°C° 0 mm 1 m/s 737 mmHg 77%
20:00 +19°C° 0 mm 1 m/s 737 mmHg 78%
21:00 +19°C° 0 mm 1 m/s 737 mmHg 80%
22:00 +18°C° 0 mm 1 m/s 737 mmHg 81%
23:00 +16°C° 0 mm 1 m/s 737 mmHg 81%

19 Mai, Mercredi

Heure Température Précipitation Vent Pression Humidité
00:00 +16°C° 0 mm 2 m/s 737 mmHg 81%
01:00 +16°C° 0 mm 2 m/s 737 mmHg 81%
02:00 +15°C° 0 mm 2 m/s 737 mmHg 82%
03:00 +15°C° 0 mm 2 m/s 737 mmHg 82%
04:00 +14°C° 0 mm 2 m/s 737 mmHg 83%
05:00 +15°C° 0 mm 2 m/s 738 mmHg 82%
06:00 +16°C° 0 mm 2 m/s 738 mmHg 82%
07:00 +16°C° 0 mm 2 m/s 738 mmHg 81%
08:00 +18°C° 0 mm 2 m/s 739 mmHg 79%
09:00 +20°C° 0 mm 2 m/s 739 mmHg 76%
10:00 +23°C° 0 mm 2 m/s 739 mmHg 74%
11:00 +23°C° 0.7 mm 2 m/s 739 mmHg 75%
12:00 +23°C° 0.7 mm 2 m/s 739 mmHg 76%
13:00 +23°C° 0.7 mm 2 m/s 739 mmHg 78%
14:00 +23°C° 0.2 mm 1 m/s 739 mmHg 78%
15:00 +23°C° 0.2 mm 1 m/s 739 mmHg 77%
16:00 +21°C° 0.2 mm 0 m/s 738 mmHg 77%
17:00 +22°C° 0.1 mm 1 m/s 738 mmHg 80%
18:00 +22°C° 0.1 mm 1 m/s 738 mmHg 82%
19:00 +21°C° 0.1 mm 1 m/s 738 mmHg 85%
20:00 +20°C° 0 mm 1 m/s 738 mmHg 87%
21:00 +19°C° 0 mm 1 m/s 738 mmHg 88%
22:00 +19°C° 0 mm 1 m/s 738 mmHg 90%
23:00 +17°C° 0 mm 2 m/s 738 mmHg 91%

20 Mai, Jeudi

Heure Température Précipitation Vent Pression Humidité
00:00 +17°C° 0 mm 2 m/s 738 mmHg 91%
01:00 +17°C° 0 mm 2 m/s 738 mmHg 92%
02:00 +16°C° 0 mm 2 m/s 738 mmHg 92%
03:00 +16°C° 0 mm 2 m/s 738 mmHg 92%
04:00 +16°C° 0 mm 2 m/s 738 mmHg 93%
05:00 +17°C° 0 mm 2 m/s 739 mmHg 91%
06:00 +19°C° 0 mm 1 m/s 739 mmHg 89%
07:00 +19°C° 0 mm 1 m/s 740 mmHg 87%
08:00 +21°C° 0 mm 1 m/s 740 mmHg 80%
09:00 +23°C° 0 mm 2 m/s 740 mmHg 74%
10:00 +25°C° 0 mm 2 m/s 740 mmHg 68%
11:00 +26°C° 0.1 mm 2 m/s 740 mmHg 65%
12:00 +27°C° 0.1 mm 2 m/s 740 mmHg 63%
13:00 +28°C° 0.1 mm 2 m/s 739 mmHg 61%
14:00 +28°C° 0.2 mm 2 m/s 739 mmHg 61%
15:00 +28°C° 0.2 mm 2 m/s 739 mmHg 61%
16:00 +28°C° 0.2 mm 2 m/s 738 mmHg 62%
17:00 +26°C° 0.4 mm 1 m/s 738 mmHg 68%
18:00 +25°C° 0.4 mm 1 m/s 738 mmHg 74%
19:00 +23°C° 0.4 mm 1 m/s 738 mmHg 80%
20:00 +23°C° 0 mm 1 m/s 738 mmHg 82%
21:00 +22°C° 0 mm 1 m/s 738 mmHg 84%
22:00 +21°C° 0 mm 1 m/s 739 mmHg 87%
23:00 +21°C° 0 mm 1 m/s 738 mmHg 87%
Voir plus

Nous avons besoin de votre consentement

Meteoprog et ses fournisseurs de services peuvent stocker et accéder à des données personnelles telles que des cookies, des identifiants d'appareils ou d'autres technologies similaires sur votre appareil et traiter ces données pour personnaliser le contenu et les publicités, ainsi que pour fournir des fonctionnalités de médias sociaux et analyser le trafic.

  • Stocker et/ou accéder à des informations sur votre appareil

    Des cookies, des identifiants d'appareils ou d'autres informations peuvent être stockés ou accessibles sur votre appareil aux fins indiquées ci-dessus.

  • Annonces et contenus personnalisés, mesure des annonces et des contenus, connaissance de l'audience et développement de produits

    Les annonces et le contenu peuvent être personnalisés en fonction d'un profil. D'autres données peuvent être ajoutées pour mieux personnaliser les annonces et le contenu. Les performances des publicités et du contenu peuvent être mesurées. Il est possible d'obtenir des informations sur le public qui a vu les publicités et le contenu. Ces données peuvent être utilisées pour développer ou améliorer l'expérience de l'utilisateur, les systèmes et les logiciels.

En cliquant sur "J'accepte", vous autorisez l'utilisation de cookies, des identifiants d'appareils, des balises web ou d'autres technologies similaires. Vos paramètres peuvent être modifiés dans le navigateur de votre appareil.

Dans certains cas, des intérêts légitimes peuvent être invoqués plutôt qu'un consentement. Vous pouvez en savoir plus à ce sujet dans notre Politique de confidentialité et de cookies.